weather.gov     
National Weather Service

Regional Weather Roundup
NWS Homepage
This page is being discontinued on March 12, 2014.
The same data is available at this site. Please update your bookmarks.
Thank you, and we apologize for the inconvenience.
Please send an email to SR-SRH.Webmaster@noaa.gov with any concerns.


Current Version
Previous Version:    01  02  03  04  05  06  07  08  09  10  11  12  13  14  15  16  17  18  19  20  21  22  23  24  25  26  27  28  29  30  
   31  32  33  34  35  36  37  38  39  40  41  42  43  44  45  46  47  48  49  50  51  52  53  54  55  56  57  58  59  60  
[Printable]
660
ASUS44 KFWD 281603
RWRTX
NORTH TEXAS HOURLY WEATHER ROUNDUP
NATIONAL WEATHER SERVICE FORT WORTH TX
1000 AM CST FRI NOV 28 2014

NOTE: "FAIR" INDICATES FEW OR NO CLOUDS BELOW 12,000 FEET WITH NO
SIGNIFICANT WEATHER AND/OR OBSTRUCTIONS TO VISIBILITY.

TXZ118-119-281700-
DALLAS/FORT WORTH METROPLEX

CITY           SKY/WX    TMP DP  RH WIND       PRES   REMARKS
DFW AIRPORT    MOSUNNY   56  40  55 S14       30.22F
DALLAS LOVE    MOSUNNY   57  43  59 SW9       30.24F
FTW MEACHAM    SUNNY     59  47  64 S18G31    30.21F
DAL-EXECUTIVE  MOSUNNY   62  47  57 S13G23    30.24S
FTW-ALLIANCE   SUNNY     57  44  62 S17G28    30.21F
FTW-SPINKS     SUNNY     57  45  62 S15G22    30.25S
ARLINGTON      SUNNY     58  41  53 S14G20    30.24S
GRAND PRAIRIE  SUNNY     55  43  62 S9        30.26S
ADDISON        SUNNY     55  37  50 S13G21    30.24F
MESQUITE       MOSUNNY   52  36  54 SE9       30.28
LANCASTER      MOSUNNY   54  38  55 S13       30.27F
$$

TXZ091>094-102>105-117-120-121-131>134-281700-
NORTH CENTRAL TEXAS

CITY           SKY/WX    TMP DP  RH WIND       PRES   REMARKS
SHRMAN/DENISON SUNNY     55  38  53 S16G25    30.21F
BRIDGEPORT     SUNNY     56  43  60 SW18G25   30.19F
DENTON         SUNNY     56  41  57 S17       30.21F
MCKINNEY       SUNNY     56  37  49 S17       30.24F
ROCKWALL       SUNNY     53  36  52 S17       30.25F
TERRELL        MOSUNNY   55  37  50 S13       30.28F
WAXAHACHIE     PTSUNNY   56  49  76 S23G30    30.26S
$$

TXZ083>090-098>101-113>116-127>130-139>142-154-155-281700-
WESTERN NORTH TEXAS

CITY           SKY/WX    TMP DP  RH WIND       PRES   REMARKS
WICHITA FALLS  SUNNY     54  38  54 SW21      30.11F
WF-KICKAPOO    SUNNY     55  37  52 SW13G21   30.14F
ABILENE        SUNNY     55  45  68 SW18G33   30.19R
ABILENE-DYESS  SUNNY     56  42  58 SW16      30.16F
MINERAL WELLS  SUNNY     53  39  59 S12       30.20S
STEPHENVILLE   CLOUDY    54  47  78 SW16G22   30.25F
COMANCHE       SUNNY     55  49  78 SW22G35   30.22S
$$

TXZ143>147-156>162-174-175-281700-
CENTRAL TEXAS

CITY           SKY/WX    TMP DP  RH WIND       PRES   REMARKS
WACO           MOSUNNY   58  47  66 S13       30.28F
WACO-TSTC      SUNNY     54  43  66 S14       30.29F
WACO-MCGREGOR  CLOUDY    55  45  67 S17G24    30.29F
CORSICANA      SUNNY     57  38  48 S17       30.29F
MEXIA          MOSUNNY   54  41  61 S14G22    30.28F
HEARNE         MOSUNNY   53  44  72 SE10      30.33F
TEMPLE         PTSUNNY   52  43  71 S16       30.28F
KILLEEN        LGT RAIN  55  49  81 S14G21    30.27F
KILLEEN-SKYLRK CLOUDY    55  45  67 S6        30.27S
FORT HOOD      CLOUDY    58  48  69 S9        30.27F
HAMILTON       CLOUDY    55  47  75 S12G22    30.26S
LAMPASAS       CLOUDY    58  52  79 S13G18    30.25F
$$

TXZ095>097-106>112-122>126-135>138-148>153-164>167-281700-
EAST TEXAS

CITY           SKY/WX    TMP DP  RH WIND       PRES   REMARKS
PARIS          SUNNY     50  36  57 S12       30.28F
SULPHUR SPRNGS SUNNY     55  35  46 S17G26    30.30F
MINEOLA        SUNNY     54  37  54 S7        30.31F
TYLER          SUNNY     54  38  54 S12       30.31S
LONGVIEW       SUNNY     51  37  58 S8        30.32F
MARSHALL       SUNNY     53  39  58 S8        30.36S
PALESTINE      SUNNY     55  44  66 S9        30.33S
JACKSONVILLE   SUNNY     52  40  62 SE9       30.34S
HENDERSON      SUNNY     52  37  57 S8        30.34S
NACOGDOCHES    SUNNY     50  36  57 S7        30.36S
LUFKIN         SUNNY     53  38  56 S9        30.35S
$$

SUPPLEMENTAL OBSERVATIONS (CENTRAL)

CITY           SKY/WX    TMP DP  RH WIND       PRES   REMARKS
$$

SUPPLEMENTAL OBSERVATIONS (WEST)

CITY           SKY/WX    TMP DP  RH WIND       PRES   REMARKS
$$

SUPPLEMENTAL OBSERVATIONS (EAST)

CITY           SKY/WX    TMP DP  RH WIND       PRES   REMARKS
$$

SUPPLEMENTAL OBSERVATIONS ARE A COLLECTION OF AUTOMATED INSTRUMENTS
THAT ARE MAINTAINED BY A VARIETY OF FEDERAL AND STATE AGENCIES.
CERTAIN ELEMENTS...SUCH AS HUMIDITY VALUES AND SUSTAINED WIND
SPEEDS...MAY BE APPROXIMATED.





U.S. Dept. of Commerce
NOAA National Weather Service
1325 East West Highway
Silver Spring, MD 20910
E-mail: w-nws.webmaster@noaa.gov
Page last modified: May 16, 2007
NATIONAL WEATHER SERVICE: for Safety, for Work, for Fun - FOR LIFE